Miscellaneous Local Product
Issued by NWS Hastings, NE

Home | Current Version | Previous Version | Text Only | Print | Product List | Glossary Off
Versions: 1 2 3 4 5 6 7 8 9 10 11 12 13 14 15 16 17 18 19 20 21 22 23 24 25 26 27 28 29 30 31 32 33 34 35 36 37 38 39 40 41 42 43 44 45 46 47 48 49 50

137
AXUS43 KGID 290502
MISGRI

GID CWA HOURLY WEATHER ROUNDUP
NATIONAL WEATHER SERVICE HASTINGS NE
1200 AM CDT WED MAR 29 2017

NOTE: "FAIR" INDICATES FEW OR NO CLOUDS BELOW 12,000 FEET WITH NO
SIGNIFICANT WEATHER AND/OR OBSTRUCTIONS TO VISIBILITY.

...SOUTH CENTRAL NEBRASKA...

CITY           SKY/WX    TMP DP  RH WIND       PRES   REMARKS
GRAND ISLAND   LGT RAIN  43  43 100 NE10      30.07R FOG
HASTINGS       LGT RAIN  43  41  93 E13       30.07R FOG
KEARNEY        CLOUDY    43  39  87 NE12      30.07S
ORD            CLOUDY    45  40  82 E5        30.08R
YORK           LGT RAIN  45  45 100 NE9       30.08R
AURORA         DRIZZLE   43  43 100 NE8       30.07R
LEXINGTON      LGT RAIN  43  41  93 NE9       30.05F
HOLDREGE       DRIZZLE   42  41  95 NE13      30.04F
HEBRON         LGT RAIN  44  43  97 NE12      30.03S

...NEBRASKA PANHANDLE...

CITY           SKY/WX    TMP DP  RH WIND       PRES   REMARKS
CHADRON        CLOUDY    41  37  86 SE3       30.14S
ALLIANCE       LGT RAIN  38  37  97 E6        30.11F WCI  33
SCOTTSBLUFF    LGT RAIN  40  36  86 NE5       30.11F
SIDNEY         LGT RAIN  39  37  92 NE12      30.10R WCI  32

...WESTERN AND NORTH CENTRAL NEBRASKA...

CITY           SKY/WX    TMP DP  RH WIND       PRES   REMARKS
VALENTINE      CLOUDY    42  39  89 N3        30.13S
AINSWORTH      DRIZZLE   42  42 100 N3        30.12S
ONEILL         CLOUDY    47  41  79 N6        30.10R
BROKEN BOW     LGT RAIN  45  40  82 CALM      30.09R
IMPERIAL       LGT RAIN  42  40  92 NE15      30.06F FOG
NORTH PLATTE   LGT RAIN  44  42  93 N6        30.09R FOG
MCCOOK         CLOUDY    43  43 100 NE13      30.04R FOG

...EASTERN NEBRASKA...

CITY           SKY/WX    TMP DP  RH WIND       PRES   REMARKS
NORFOLK        CLOUDY    46  41  82 NE5       30.09F
SO SIOUX CITY  CLOUDY    48  42  80 NE6       30.12S
TEKAMAH        CLOUDY    47  42  83 NE8       30.09F
COLUMBUS       CLOUDY    45  41  87 NE6       30.09F
ALBION         CLOUDY    46  41  84 NE3       30.09F
OMAHA EPPLEY   CLOUDY    49  41  74 E12       30.08S
OFFUTT AFB     CLOUDY    48  42  78 NE7       30.07F
MILLARD        CLOUDY    51  44  76 CALM      30.09R
LINCOLN        LGT RAIN  47  44  90 NE8       30.09S
NEBRASKA CITY  CLOUDY    49  42  78 E10       30.07R
BEATRICE       RAIN      47  46  96 NE8       30.05F
FALLS CITY     CLOUDY    51  48  89 E10       30.03F

...NORTHERN KANSAS...

CITY           SKY/WX    TMP DP  RH WIND       PRES   REMARKS
GOODLAND       LGT RAIN  39  39 100 NE12      29.97F FOG     WCI  32
HILL CITY      LGT RAIN  44  43  96 NE15      30.00F FOG
NORTON         DRIZZLE   41  37  87 NE15      30.02R
PHILLIPSBURG   CLOUDY    45  45 100 N14G21    30.01F
HAYS           LGT RAIN  45  44  97 NE20G26   29.93F FOG
RUSSELL        LGT RAIN  45  44  97 NE20G26   29.91F FOG
CONCORDIA      LGT RAIN  46  46 100 NE15      29.96F FOG
SALINA         HVY RAIN  51  49  92 E15G23    29.93F FOG
TOPEKA         CLOUDY    54  50  86 NE15      29.96R



USA.gov is the U.S. government's official web portal to all federal, state and local government web resources and services.